Orbital Elements at Epoch 2459200.5 (2020-Dec-17.0) TDB
Reference: JPL 12 (heliocentric ecliptic J2000)
Element | Value | Uncertainty (1-sigma) | Units |
e | .1908624733477372 | 6.2118e-08 | |
a | 2.147532501213399 | 1.4397e-08 | au |
q | 1.737649136437158 | 1.3808e-07 | au |
i | 1.614523330215921 | 3.9628e-06 | deg |
node | 44.13443717491545 | 0.00022028 | deg |
peri | 293.8969960074113 | 0.00022069 | deg |
M | 237.1103579689944 | 1.2766e-05 | deg |
tp | 2459592.892613168768 (2022-Jan-13.39261317) | 4.2947e-05 | TDB |
period | 1149.497536213146 3.15 | 1.1559e-05 3.165e-08 | d yr |
n | .3131803145798538 | 3.1493e-09 | deg/d |
Q | 2.557415865989641 | 1.7145e-08 | au |
|
| | Orbit Determination Parameters
Additional Information
|